Station YKTV2 - 8637689 - Yorktown USCG Training Center, VA Image indicating link to RSS feed of recent meteorological observations for station YKTV2


Conditions at YKTV2 as of
(5:48 pm EDT)
2148 GMT on 04/17/2024:
     

Click on the graph icon in the table below to see a time series plot of the last five days of that observation.

5-day plot - Wind Direction Wind Direction (WDIR): S ( 190 deg true )
5-day plot - Wind Speed Wind Speed (WSPD): 8.0 kts
5-day plot - Wind Gust Wind Gust (GST): 9.9 kts
5-day plot - Atmospheric Pressure Atmospheric Pressure (PRES):29.94 in
5-day plot - Air Temperature Air Temperature (ATMP): 77.0 °F
5-day plot - Water Temperature Water Temperature (WTMP): 59.5 °F
5-day plot - Wind Speed at 10 Meters Wind Speed at 10 meters (WSPD10M): 7.8 kts
5-day plot - Wind Speed at 20 Meters Wind Speed at 20 meters (WSPD20M): 9.7 kts
5-day plot -  Wind Speed, Wind Gust and Atmospheric Pressure Combined plot of Wind Speed, Gust, and Air Pressure
NOS Water Level Observation Network Water Level
Previous observations
TIME
(EDT)
5-day plot - Wind Direction
WDIR
 
5-day plot - Wind Speed
WSPD
kts
5-day plot - Wind Gust
GST
kts
5-day plot - Wave Height
WVHT
ft
5-day plot - Dominant Wave Period
DPD
sec
5-day plot - Average Wave Period
APD
sec
5-day plot - Mean Wave Direction
MWD
 
5-day plot - Atmospheric Pressure
PRES
in
5-day plot - Pressure Tendency
PTDY
in
5-day plot - Air Temperature
ATMP
°F
5-day plot - Water Temperature
WTMP
°F
5-day plot - Dew Point
DEWP
°F
5-day plot - Salinity
SAL
psu
5-day plot - Visibility
VIS
nmi
5-day plot - Tide (above MLLW)
TIDE
ft
2024-04-17 05:42 pm S 8.0 11.1----29.94- 76.8 59.5----
2024-04-17 05:36 pm S 8.0 9.9----29.94- 77.2 59.5----
2024-04-17 05:30 pm S 8.0 11.1----29.94- 76.8 59.4----
2024-04-17 05:24 pm S 6.0 9.9----29.94- 76.6 59.4----
2024-04-17 05:18 pm S 8.9 11.1----29.94- 77.2 59.4----
2024-04-17 05:12 pmSSW 7.0 12.0----29.95- 76.8 59.4----
2024-04-17 05:06 pmSSW 8.0 12.0----29.95- 77.4 59.5----
2024-04-17 05:00 pmSSW 8.0 11.1----29.96-0.05 77.7 59.9----
2024-04-17 04:54 pmSSW 7.0 11.1----29.96- 77.7 60.1----
2024-04-17 04:48 pm SW 8.0 9.9----29.96- 77.7 60.3----
2024-04-17 04:42 pmSSW 5.1 8.0----29.96- 77.7 60.4----
2024-04-17 04:36 pm SW 5.1 8.0----29.96- 77.2 60.6----
2024-04-17 04:30 pm SW 6.0 8.9----29.96- 77.4 60.6----
2024-04-17 04:24 pm W 7.0 11.1----29.96- 77.2 60.8----
2024-04-17 04:18 pm W 8.9 12.0----29.96- 77.4 60.6----
2024-04-17 04:12 pm W 8.9 11.1----29.97- 77.5 60.6----
2024-04-17 04:06 pm W 6.0 9.9----29.97- 77.0 60.4----
2024-04-17 04:00 pm W 8.0 9.9----29.97-0.06 77.0 60.4----
2024-04-17 03:54 pm W 8.9 13.0----29.98- 76.8 60.4----
2024-04-17 03:48 pm W 8.9 12.0----29.98- 78.1 60.4----
2024-04-17 03:42 pm W 8.9 13.0----29.98- 77.9 60.4----
2024-04-17 03:36 pm W 9.9 15.0----29.98- 77.9 60.6----
2024-04-17 03:30 pm W 8.9 12.0----29.98- 77.2 60.4----
2024-04-17 03:24 pm W 7.0 9.9----29.98- 77.7 60.4----
2024-04-17 03:18 pm W 5.1 7.0----29.98- 77.2 60.4----
2024-04-17 03:12 pm W 4.1 6.0----29.98- 77.2 60.4----
2024-04-17 03:06 pm SW 4.1 7.0----29.99- 76.5 60.4----
2024-04-17 03:00 pmWSW 6.0 9.9----29.99-0.07 77.0 60.4----
2024-04-17 02:54 pmWSW 6.0 8.0----29.99- 76.5 60.4----
2024-04-17 02:48 pmWSW 5.1 8.9----30.00- 76.1 60.4----
2024-04-17 02:42 pm SW 6.0 8.0----30.00- 76.3 60.6----
2024-04-17 02:36 pm SW 4.1 7.0----30.00- 75.7 60.8----
2024-04-17 02:30 pm S 4.1 7.0----30.00- 75.4 61.0----
2024-04-17 02:24 pm S 5.1 9.9----29.99- 75.6 61.0----
2024-04-17 02:18 pm SW 8.0 9.9----30.00- 75.4 61.0----
2024-04-17 02:12 pmSSW 5.1 6.0----30.00- 75.6 61.2----
2024-04-17 02:06 pmSSW 5.1 8.0----30.00- 75.2 61.2----
2024-04-17 02:00 pm S 8.9 12.0----30.00-0.09 75.2 61.2----
2024-04-17 01:54 pmSSW 4.1 8.9----30.01- 75.0 61.0----
2024-04-17 01:48 pm S 5.1 8.0----30.01- 74.8 60.8----
2024-04-17 01:42 pmWSW 5.1 11.1----30.02- 74.7 61.0----
2024-04-17 01:36 pmWSW 8.9 14.0----30.03- 74.3 61.0----
2024-04-17 01:30 pmWSW 8.9 11.1----30.03- 74.5 61.0----
2024-04-17 01:24 pm S 5.1 8.9----30.03- 73.9 61.0----
2024-04-17 01:18 pmSSW 7.0 8.9----30.03- 73.4 61.0----
2024-04-17 01:12 pm SW 4.1 8.0----30.03- 73.4 61.0----
2024-04-17 01:06 pm SW 2.9 7.0----30.03- 73.4 60.8----
2024-04-17 01:00 pm S 5.1 8.9----30.03-0.07 73.0 60.8----
2024-04-17 12:54 pm S 6.0 8.0----30.04- 72.9 61.0----
2024-04-17 12:48 pm SW 5.1 8.9----30.04- 72.5 60.6----
2024-04-17 12:42 pm S 7.0 8.9----30.04- 72.5 60.6----
2024-04-17 12:36 pm S 4.1 8.0----30.04- 72.3 60.6----
2024-04-17 12:30 pm S 5.1 7.0----30.05- 72.1 60.8----
2024-04-17 12:24 pm S 6.0 8.0----30.05- 71.6 61.2----
2024-04-17 12:18 pm SE 5.1 8.9----30.05- 71.1 60.4----
2024-04-17 12:12 pmSSE 8.0 9.9----30.05- 70.9 60.3----
2024-04-17 12:06 pmSSE 6.0 8.0----30.06- 70.3 60.1----
2024-04-17 12:00 pm S 4.1 8.0----30.06-0.04 69.8 60.4----
2024-04-17 11:54 am S 4.1 7.0----30.07- 69.3 60.4----
2024-04-17 11:48 am S 2.9 6.0----30.08- 68.7 60.3----
2024-04-17 11:42 amSSW 4.1 6.0----30.08- 68.4 60.1----
2024-04-17 11:36 am S 2.9 5.1----30.08- 68.4 60.3----
2024-04-17 11:30 amSSW 4.1 5.1----30.09- 68.2 60.4----
2024-04-17 11:24 amSSW 1.9 5.1----30.09- 68.0 60.4----
2024-04-17 11:18 am SW 4.1 6.0----30.09- 67.8 60.1----
2024-04-17 11:12 amSSW 5.1 7.0----30.09- 67.6 60.3----
2024-04-17 11:06 am S 4.1 6.0----30.09- 67.5 60.1----
2024-04-17 11:00 amSSW 5.1 7.0----30.10-0.01 67.3 60.1----
2024-04-17 10:54 amSSW 8.0 11.1----30.10- 66.9 60.1----
2024-04-17 10:48 amSSW 8.9 11.1----30.10- 67.1 59.5----
2024-04-17 10:42 am SW 5.1 9.9----30.10- 67.1 59.0----
2024-04-17 10:36 am S 6.0 11.1----30.10- 66.9 58.3----
2024-04-17 10:30 amSSW 8.0 11.1----30.09- 66.7 58.1----
2024-04-17 10:24 am S 7.0 9.9----30.10- 66.7 58.3----
2024-04-17 10:18 am S 6.0 9.9----30.10- 66.4 58.3----
2024-04-17 10:12 am S 7.0 8.9----30.10- 66.2 58.5----
2024-04-17 10:06 amSSW 6.0 8.9----30.10- 66.0 58.5----
2024-04-17 10:00 am S 5.1 8.0----30.10-0.02 65.7 58.5----
2024-04-17 09:54 am S 5.1 8.0----30.10- 65.3 58.5----
2024-04-17 09:48 am S 6.0 8.9----30.10- 64.9 58.6----
2024-04-17 09:42 am S 7.0 11.1----30.09- 64.6 59.7----
2024-04-17 09:36 am S 7.0 14.0----30.09- 64.4 60.1----
2024-04-17 09:30 am S 8.0 9.9----30.10- 64.2 60.1----
2024-04-17 09:24 am S 7.0 9.9----30.11- 64.2 60.1----
2024-04-17 09:18 am S 7.0 9.9----30.11- 64.2 60.3----
2024-04-17 09:12 amSSW 8.0 11.1----30.11- 64.4 60.3----
2024-04-17 09:06 am S 8.0 14.0----30.11- 64.6 60.1----
2024-04-17 09:00 am S 8.9 13.0----30.10-0.03 64.9 59.9----
2024-04-17 08:54 amSSW 7.0 9.9----30.11- 65.1 59.7----
2024-04-17 08:48 am S 8.9 12.0----30.10- 64.9 59.7----
2024-04-17 08:42 am S 7.0 8.9----30.10- 64.8 59.7----
2024-04-17 08:36 am S 6.0 8.0----30.10- 64.4 59.5----
2024-04-17 08:30 am S 2.9 5.1----30.11- 64.0 59.5----
2024-04-17 08:24 amSSW 2.9 8.0----30.11- 63.9 59.7----
2024-04-17 08:18 am S 7.0 11.1----30.11- 63.9 59.9----
2024-04-17 08:12 am S 6.0 9.9----30.11- 63.5 59.7----
2024-04-17 08:06 am S 6.0 7.0----30.11- 63.1 59.9----
2024-04-17 08:00 am S 4.1 6.0----30.11-0.02 62.8 60.1----
2024-04-17 07:54 amSSE 4.1 6.0----30.11- 62.2 59.9----
2024-04-17 07:48 amSSE 5.1 7.0----30.11- 61.2 59.7----
2024-04-17 07:42 am SE 5.1 7.0----30.10- 60.4 59.5----
2024-04-17 07:36 am SE 2.9 4.1----30.11- 59.9 59.5----
2024-04-17 07:30 amESE 4.1 4.1----30.11- 59.4 59.5----
2024-04-17 07:24 amESE 2.9 4.1----30.12- 59.0 60.1----
2024-04-17 07:18 amESE 2.9 2.9----30.12- 58.6 60.1----
2024-04-17 07:12 amESE 1.0 1.9----30.12- 58.8 60.1----
2024-04-17 07:06 am- 0.0 1.9----30.13- 58.5 60.1----
2024-04-17 07:00 amSSE 1.9 2.9----30.13-0.01 58.5 60.1----
2024-04-17 06:54 amESE 1.9 4.1----30.12- 58.5 59.9----
2024-04-17 06:48 amESE 1.9 2.9----30.12- 58.3 59.9----
2024-04-17 06:42 amESE 1.0 1.9----30.13- 58.5 59.9----
2024-04-17 06:36 am- 0.0 1.0----30.13- 58.5 59.7----
2024-04-17 06:30 amESE 1.0 1.9----30.12- 58.5 59.7----
2024-04-17 06:24 am SE 1.9 1.9----30.12- 58.5 59.7----
2024-04-17 06:18 am S 1.9 1.9----30.13- 58.5 59.7----
2024-04-17 06:12 am S 1.9 2.9----30.13- 58.5 59.7----
2024-04-17 06:06 am S 1.9 2.9----30.13- 58.3 59.7----
2024-04-17 06:00 amSSW 1.9 1.9----30.13+0.00 58.1 59.7----
2024-04-17 05:54 am SW 1.9 2.9----30.13- 58.1 59.5----
2024-04-17 05:48 am S 1.9 1.9----30.13- 57.9 59.7----
2024-04-17 05:42 am SE 1.0 2.9----30.12- 57.9 59.7----
2024-04-17 05:36 am SE 1.9 4.1----30.12- 57.9 59.7----
2024-04-17 05:30 am SE 2.9 5.1----30.12- 57.9 59.7----
2024-04-17 05:24 amESE 4.1 4.1----30.12- 57.7 59.7----
2024-04-17 05:18 am SE 2.9 5.1----30.12- 57.7 59.7----
2024-04-17 05:12 am SE 4.1 5.1----30.12- 57.9 59.5----
2024-04-17 05:06 amESE 4.1 5.1----30.12- 57.6 59.5----
2024-04-17 05:00 amESE 4.1 5.1----30.12-0.02 57.6 59.5----
2024-04-17 04:54 am SE 2.9 4.1----30.13- 57.7 59.7----
2024-04-17 04:48 am SE 1.9 2.9----30.13- 57.9 59.5----
2024-04-17 04:42 am SE 1.9 2.9----30.13- 57.9 59.5----
2024-04-17 04:36 am SE 2.9 4.1----30.13- 57.7 59.5----
2024-04-17 04:30 am SE 1.9 5.1----30.13- 57.7 59.5----
2024-04-17 04:24 am SE 4.1 5.1----30.13- 57.9 59.7----
2024-04-17 04:18 am SE 4.1 5.1----30.13- 57.9 59.7----
2024-04-17 04:12 amSSE 2.9 4.1----30.13- 57.7 59.7----
2024-04-17 04:06 am SE 4.1 5.1----30.13- 57.7 59.5----
2024-04-17 04:00 am SE 2.9 4.1----30.14-0.03 57.7 59.7----
2024-04-17 03:54 am SE 2.9 5.1----30.13- 57.7 59.5----
2024-04-17 03:48 am SE 4.1 5.1----30.14- 57.7 59.5----
2024-04-17 03:42 amSSE 2.9 4.1----30.14- 57.4 59.5----
2024-04-17 03:36 am S 2.9 2.9----30.14- 57.0 59.7----
2024-04-17 03:30 am S 1.0 2.9----30.14- 56.8 59.7----
2024-04-17 03:24 am S 1.9 2.9----30.14- 56.7 59.7----
2024-04-17 03:18 am S 1.9 2.9----30.14- 56.1 59.7----
2024-04-17 03:12 amSSE 2.9 4.1----30.14- 55.9 59.7----
2024-04-17 03:06 am SE 4.1 4.1----30.14- 56.1 59.7----
2024-04-17 03:00 am SE 2.9 4.1----30.14-0.03 56.5 59.7----
2024-04-17 02:54 am E 1.0 1.9----30.14- 55.8 59.9----
2024-04-17 02:48 am S 1.0 1.9----30.14- 55.4 59.9----
2024-04-17 02:42 am SW 1.9 1.9----30.14- 55.6 60.1----
2024-04-17 02:36 amSSE 1.9 2.9----30.14- 55.8 59.9----
2024-04-17 02:30 amSSE 2.9 4.1----30.14- 56.1 59.9----
2024-04-17 02:24 am SE 2.9 4.1----30.14- 56.3 59.9----
2024-04-17 02:18 am SE 1.9 1.9----30.15- 56.3 59.9----
2024-04-17 02:12 amESE 1.9 1.9----30.15- 56.1 60.1----
2024-04-17 02:06 am- 0.0 1.9----30.15- 56.3 60.3----
2024-04-17 02:00 am SE 1.0 1.9----30.14-0.04 56.5 60.4----
2024-04-17 01:54 am SE 1.9 1.9----30.14- 56.3 60.4----
2024-04-17 01:48 amSSE 1.0 1.9----30.15- 56.1 60.4----
2024-04-17 01:42 am- 0.0 1.0----30.15- 56.1 60.4----
2024-04-17 01:36 am- 0.0 1.0----30.15- 55.9 60.4----
2024-04-17 01:30 amWSW 1.0 2.9----30.16- 55.9 60.4----
2024-04-17 01:24 amWSW 1.9 2.9----30.16- 56.1 60.4----
2024-04-17 01:18 amSSW 1.9 2.9----30.16- 56.3 60.4----
2024-04-17 01:12 am SW 2.9 4.1----30.16- 56.7 60.4----
2024-04-17 01:06 am S 2.9 4.1----30.16- 57.0 60.6----
2024-04-17 01:00 amSSE 4.1 6.0----30.16-0.01 57.2 60.6----
2024-04-17 12:54 am SE 5.1 6.0----30.16- 57.4 60.6----
2024-04-17 12:48 am SE 5.1 6.0----30.16- 57.4 60.6----
2024-04-17 12:42 am SE 4.1 5.1----30.16- 57.4 60.4----
2024-04-17 12:36 amSSE 4.1 5.1----30.17- 57.4 60.4----
2024-04-17 12:30 amSSE 6.0 6.0----30.17- 57.4 60.4----
2024-04-17 12:24 amSSE 5.1 5.1----30.17- 57.4 60.3----
2024-04-17 12:18 amSSE 5.1 6.0----30.16- 57.6 60.3----
2024-04-17 12:12 am SE 5.1 6.0----30.17- 57.9 60.3----
2024-04-17 12:06 am SE 5.1 6.0----30.17- 57.7 60.4----
2024-04-17 12:00 am SE 4.1 5.1----30.17+0.00 57.7 60.3----
2024-04-16 11:54 pm SE 4.1 5.1----30.17- 57.9 60.1----
2024-04-16 11:48 pm SE 4.1 5.1----30.18- 57.9 60.3----
2024-04-16 11:42 pm SE 4.1 5.1----30.18- 57.9 59.5----
2024-04-16 11:36 pm SE 2.9 5.1----30.18- 57.9 59.7----
2024-04-16 11:30 pmSSE 4.1 5.1----30.18- 57.7 59.5----
2024-04-16 11:24 pmSSE 4.1 5.1----30.19- 57.7 59.5----
2024-04-16 11:18 pmSSE 5.1 6.0----30.18- 57.9 59.4----
2024-04-16 11:12 pmSSE 6.0 7.0----30.18- 57.9 59.4----
2024-04-16 11:06 pmSSE 5.1 6.0----30.18- 58.1 59.5----
2024-04-16 11:00 pmSSE 5.1 7.0----30.18+0.01 58.1 60.1----
2024-04-16 10:54 pmSSE 6.0 8.0----30.18- 58.3 60.3----
2024-04-16 10:48 pmSSE 6.0 7.0----30.17- 58.3 59.5----
2024-04-16 10:42 pmSSE 6.0 7.0----30.18- 58.5 58.6----
2024-04-16 10:36 pmSSE 6.0 7.0----30.18- 58.6 58.6----
2024-04-16 10:30 pm S 5.1 6.0----30.18- 58.6 58.5----
2024-04-16 10:24 pmSSE 5.1 5.1----30.18- 58.6 59.0----
2024-04-16 10:18 pmSSE 5.1 6.0----30.18- 58.8 58.6----
2024-04-16 10:12 pmSSE 5.1 5.1----30.18- 58.8 59.0----
2024-04-16 10:06 pmSSE 4.1 5.1----30.18- 58.8 58.3----
2024-04-16 10:00 pmSSE 4.1 6.0----30.17+0.01 59.0 57.7----
2024-04-16 09:54 pmSSE 5.1 7.0----30.17- 59.0 57.4----
2024-04-16 09:48 pmSSE 5.1 7.0----30.17- 59.0 57.0----
2024-04-16 09:42 pmSSE 5.1 7.0----30.17- 59.2 57.0----
2024-04-16 09:36 pmSSE 5.1 6.0----30.17- 59.4 57.2----
2024-04-16 09:30 pm SE 5.1 6.0----30.18- 59.5 57.4----
2024-04-16 09:24 pmSSE 5.1 6.0----30.18- 59.5 57.4----
2024-04-16 09:18 pm SE 5.1 6.0----30.18- 59.7 57.6----
2024-04-16 09:12 pm SE 5.1 6.0----30.18- 59.7 57.7----
2024-04-16 09:06 pm SE 5.1 6.0----30.18- 59.9 57.9----
2024-04-16 09:00 pm SE 4.1 5.1----30.17+0.02 59.9 58.1----
2024-04-16 08:54 pmSSE 5.1 6.0----30.18- 59.9 59.0----
2024-04-16 08:48 pm SE 5.1 6.0----30.17- 60.1 59.0----
2024-04-16 08:42 pmSSE 5.1 6.0----30.17- 60.3 59.4----
2024-04-16 08:36 pm SE 5.1 7.0----30.17- 60.6 59.7----
2024-04-16 08:30 pmESE 5.1 7.0----30.17- 60.4 60.1----
2024-04-16 08:24 pm E 6.0 7.0----30.17- 60.8 60.3----
2024-04-16 08:18 pmESE 6.0 7.0----30.17- 60.6 60.3----
2024-04-16 08:12 pmESE 5.1 8.0----30.17- 60.8 60.4----
2024-04-16 08:06 pmESE 6.0 8.0----30.17- 61.2 60.1----
2024-04-16 08:00 pm E 7.0 8.0----30.17+0.01 61.3 60.1----
2024-04-16 07:54 pm E 6.0 8.0----30.17- 61.5 59.7----
2024-04-16 07:48 pm E 5.1 6.0----30.17- 62.1 59.7----
2024-04-16 07:42 pmESE 6.0 7.0----30.17- 62.1 59.5----
2024-04-16 07:36 pmESE 5.1 6.0----30.17- 62.4 59.5----
2024-04-16 07:30 pmESE 6.0 8.0----30.16- 62.6 59.5----
2024-04-16 07:24 pm SE 6.0 7.0----30.16- 63.0 59.5----
2024-04-16 07:00 pm SE 6.0 9.9----30.16+0.00 63.5-----
2024-04-16 06:54 pm SE 8.0 9.9----30.16- 63.5-----
2024-04-16 06:48 pm SE 8.9 12.0----30.16- 63.5 59.2----
2024-04-16 06:42 pm SE 8.9 12.0----30.16- 63.7 59.2----
2024-04-16 06:36 pm SE 6.0 8.9----30.16- 64.0 59.7----
2024-04-16 06:30 pm SE 8.0 9.9----30.16-- 59.7----
2024-04-16 06:24 pm SE 8.0 11.1----30.16-- 59.7----
2024-04-16 06:18 pm SE 8.0 9.9----30.16-- 59.7----
2024-04-16 06:12 pmESE 8.0 11.1----30.16-- 59.7----
2024-04-16 06:06 pm SE 8.9 12.0----30.16-- 59.4----
2024-04-16 06:00 pm SE 8.9 11.1----30.16-0.03 64.4 59.4----
2024-04-16 05:54 pmESE 8.9 12.0----30.15- 64.6 59.4----